• In Hungary
  • List of Countries
  • For 7 days
  • Water Temperature
  • Satellite Maps
  • Weather Map
  • News
  • Weather Widgets
  • user-avatar
    Login

    Hourly Weather Zalezino

    Today, 19 August, Sunday

    Time Temperature Precipitation Wind Pressure Humidity
    00:00 +14°C° 0 mm 2 mps 750 mmHg 84%
    01:00 +14°C° 0 mm 2 mps 750 mmHg 84%
    02:00 +13°C° 0 mm 2 mps 750 mmHg 85%
    03:00 +13°C° 0 mm 2 mps 750 mmHg 85%
    04:00 +13°C° 0 mm 2 mps 750 mmHg 85%
    05:00 +14°C° 0 mm 2 mps 749 mmHg 85%
    06:00 +16°C° 0 mm 3 mps 749 mmHg 80%
    07:00 +18°C° 0 mm 3 mps 749 mmHg 75%
    08:00 +20°C° 0 mm 3 mps 749 mmHg 70%
    09:00 +21°C° 0 mm 4 mps 748 mmHg 66%
    10:00 +23°C° 0 mm 4 mps 748 mmHg 62%
    11:00 +26°C° 0 mm 5 mps 748 mmHg 57%
    12:00 +25°C° 0.6 mm 5 mps 747 mmHg 63%
    13:00 +25°C° 0.6 mm 5 mps 747 mmHg 69%
    14:00 +23°C° 0.6 mm 5 mps 746 mmHg 75%
    15:00 +23°C° 0.3 mm 4 mps 746 mmHg 76%
    16:00 +23°C° 0.3 mm 4 mps 746 mmHg 77%
    17:00 +23°C° 0.3 mm 4 mps 745 mmHg 77%
    18:00 +21°C° 0.3 mm 3 mps 745 mmHg 83%
    19:00 +20°C° 0.3 mm 3 mps 745 mmHg 89%
    20:00 +18°C° 0.3 mm 3 mps 745 mmHg 94%
    21:00 +17°C° 0 mm 2 mps 745 mmHg 95%
    22:00 +17°C° 0 mm 2 mps 745 mmHg 95%
    23:00 +16°C° 0 mm 2 mps 745 mmHg 96%

    Tomorrow, 20 August, Monday

    Time Temperature Precipitation Wind Pressure Humidity
    00:00 +16°C° 0.1 mm 2 mps 745 mmHg 95%
    01:00 +15°C° 0.1 mm 2 mps 745 mmHg 95%
    02:00 +15°C° 0.1 mm 2 mps 745 mmHg 95%
    03:00 +15°C° 0 mm 2 mps 746 mmHg 95%
    04:00 +15°C° 0 mm 2 mps 746 mmHg 96%
    05:00 +15°C° 0 mm 2 mps 746 mmHg 97%
    06:00 +16°C° 0 mm 2 mps 746 mmHg 94%
    07:00 +17°C° 0 mm 2 mps 746 mmHg 91%
    08:00 +18°C° 0 mm 2 mps 746 mmHg 88%
    09:00 +19°C° 0 mm 3 mps 746 mmHg 82%
    10:00 +19°C° 0 mm 3 mps 746 mmHg 76%
    11:00 +20°C° 0 mm 3 mps 746 mmHg 70%
    12:00 +21°C° 0.1 mm 3 mps 745 mmHg 68%
    13:00 +21°C° 0.1 mm 3 mps 745 mmHg 67%
    14:00 +22°C° 0.1 mm 3 mps 744 mmHg 65%
    15:00 +21°C° 0.3 mm 3 mps 744 mmHg 72%
    16:00 +20°C° 0.3 mm 3 mps 744 mmHg 79%
    17:00 +20°C° 0.3 mm 2 mps 743 mmHg 86%
    18:00 +19°C° 0.1 mm 2 mps 743 mmHg 89%
    19:00 +18°C° 0.1 mm 2 mps 743 mmHg 93%
    20:00 +17°C° 0.1 mm 2 mps 742 mmHg 96%
    21:00 +17°C° 0 mm 3 mps 742 mmHg 96%
    22:00 +17°C° 0 mm 3 mps 741 mmHg 96%
    23:00 +17°C° 0 mm 3 mps 741 mmHg 95%

    Day after tomorrow, 21 August, Tuesday

    Time Temperature Precipitation Wind Pressure Humidity
    00:00 +17°C° 0.2 mm 4 mps 740 mmHg 95%
    01:00 +17°C° 0.2 mm 4 mps 739 mmHg 95%
    02:00 +17°C° 0.2 mm 4 mps 739 mmHg 95%
    03:00 +17°C° 0 mm 4 mps 738 mmHg 95%
    04:00 +16°C° 0 mm 5 mps 737 mmHg 95%
    05:00 +16°C° 0 mm 5 mps 737 mmHg 95%
    06:00 +17°C° 0.5 mm 6 mps 736 mmHg 93%
    07:00 +17°C° 0.5 mm 6 mps 736 mmHg 91%
    08:00 +19°C° 0.5 mm 6 mps 735 mmHg 89%
    09:00 +17°C° 1.8 mm 6 mps 735 mmHg 87%
    10:00 +16°C° 1.8 mm 6 mps 735 mmHg 85%
    11:00 +15°C° 1.8 mm 6 mps 735 mmHg 84%
    12:00 +15°C° 0.1 mm 7 mps 735 mmHg 77%
    13:00 +15°C° 0.1 mm 8 mps 735 mmHg 71%
    14:00 +15°C° 0.1 mm 8 mps 736 mmHg 65%
    15:00 +15°C° 0.1 mm 8 mps 736 mmHg 67%
    16:00 +15°C° 0.1 mm 7 mps 737 mmHg 70%
    17:00 +14°C° 0.1 mm 7 mps 737 mmHg 72%
    18:00 +13°C° 0 mm 6 mps 738 mmHg 75%
    19:00 +13°C° 0 mm 5 mps 738 mmHg 78%
    20:00 +12°C° 0 mm 5 mps 738 mmHg 80%
    21:00 +12°C° 0 mm 5 mps 739 mmHg 81%
    22:00 +10°C° 0 mm 5 mps 739 mmHg 82%
    23:00 +10°C° 0 mm 5 mps 739 mmHg 83%

    22 August, Wednesday

    Time Temperature Precipitation Wind Pressure Humidity
    00:00 +10°C° 0 mm 5 mps 740 mmHg 83%
    01:00 +10°C° 0 mm 5 mps 740 mmHg 83%
    02:00 +10°C° 0 mm 5 mps 741 mmHg 83%
    03:00 +10°C° 0 mm 5 mps 741 mmHg 82%
    04:00 +9°C° 0 mm 5 mps 742 mmHg 82%
    05:00 +9°C° 0 mm 5 mps 742 mmHg 81%
    06:00 +10°C° 0 mm 5 mps 743 mmHg 79%
    07:00 +10°C° 0 mm 5 mps 743 mmHg 77%
    08:00 +12°C° 0 mm 5 mps 744 mmHg 74%
    09:00 +12°C° 0 mm 5 mps 744 mmHg 71%
    10:00 +13°C° 0 mm 5 mps 745 mmHg 68%
    11:00 +14°C° 0 mm 5 mps 745 mmHg 65%
    12:00 +15°C° 0.1 mm 5 mps 746 mmHg 61%
    13:00 +15°C° 0.1 mm 6 mps 746 mmHg 56%
    14:00 +16°C° 0.1 mm 6 mps 747 mmHg 52%
    15:00 +16°C° 0 mm 5 mps 747 mmHg 53%
    16:00 +17°C° 0 mm 4 mps 747 mmHg 53%
    17:00 +15°C° 0 mm 4 mps 748 mmHg 53%
    18:00 +14°C° 0 mm 3 mps 748 mmHg 60%
    19:00 +12°C° 0 mm 3 mps 749 mmHg 66%
    20:00 +10°C° 0 mm 2 mps 749 mmHg 72%
    21:00 +10°C° 0 mm 2 mps 750 mmHg 75%
    22:00 +9°C° 0 mm 2 mps 750 mmHg 77%
    23:00 +8°C° 0 mm 2 mps 750 mmHg 79%

    23 August, Thursday

    Time Temperature Precipitation Wind Pressure Humidity
    00:00 +8°C° 0 mm 2 mps 750 mmHg 80%
    01:00 +8°C° 0 mm 2 mps 750 mmHg 80%
    02:00 +7°C° 0 mm 2 mps 750 mmHg 81%
    03:00 +8°C° 0 mm 2 mps 750 mmHg 79%
    04:00 +8°C° 0 mm 2 mps 750 mmHg 78%
    05:00 +9°C° 0 mm 3 mps 750 mmHg 77%
    06:00 +11°C° 0 mm 3 mps 750 mmHg 73%
    07:00 +13°C° 0 mm 4 mps 750 mmHg 69%
    08:00 +14°C° 0 mm 4 mps 750 mmHg 65%
    09:00 +16°C° 0 mm 5 mps 749 mmHg 61%
    10:00 +19°C° 0 mm 5 mps 749 mmHg 56%
    11:00 +20°C° 0 mm 6 mps 749 mmHg 52%
    12:00 +21°C° 0 mm 6 mps 748 mmHg 50%
    13:00 +21°C° 0 mm 6 mps 748 mmHg 49%
    14:00 +22°C° 0 mm 6 mps 748 mmHg 47%
    15:00 +21°C° 0 mm 5 mps 748 mmHg 51%
    16:00 +21°C° 0 mm 4 mps 748 mmHg 54%
    17:00 +20°C° 0 mm 3 mps 747 mmHg 57%
    18:00 +19°C° 0 mm 3 mps 747 mmHg 63%
    19:00 +17°C° 0 mm 3 mps 748 mmHg 68%
    20:00 +16°C° 0 mm 3 mps 748 mmHg 73%
    21:00 +14°C° 0 mm 3 mps 748 mmHg 75%
    22:00 +14°C° 0 mm 3 mps 748 mmHg 76%
    23:00 +14°C° 0 mm 3 mps 748 mmHg 78%

    24 August, Friday

    Time Temperature Precipitation Wind Pressure Humidity
    00:00 +13°C° 0 mm 3 mps 748 mmHg 80%
    01:00 +13°C° 0 mm 3 mps 748 mmHg 82%
    02:00 +12°C° 0 mm 3 mps 748 mmHg 85%
    03:00 +13°C° 0 mm 2 mps 749 mmHg 86%
    04:00 +13°C° 0 mm 2 mps 749 mmHg 87%
    05:00 +13°C° 0 mm 2 mps 749 mmHg 88%
    06:00 +15°C° 0 mm 2 mps 749 mmHg 83%
    07:00 +16°C° 0 mm 2 mps 749 mmHg 77%
    08:00 +18°C° 0 mm 2 mps 749 mmHg 72%
    09:00 +20°C° 0 mm 3 mps 749 mmHg 66%
    10:00 +22°C° 0 mm 3 mps 749 mmHg 61%
    11:00 +25°C° 0 mm 3 mps 749 mmHg 55%
    12:00 +25°C° 0 mm 3 mps 749 mmHg 54%
    13:00 +25°C° 0 mm 3 mps 749 mmHg 53%
    14:00 +26°C° 0 mm 3 mps 749 mmHg 52%
    15:00 +25°C° 0 mm 3 mps 748 mmHg 56%
    16:00 +25°C° 0 mm 2 mps 748 mmHg 59%
    17:00 +24°C° 0 mm 2 mps 748 mmHg 63%
    18:00 +21°C° 0 mm 2 mps 748 mmHg 70%
    19:00 +19°C° 0 mm 2 mps 748 mmHg 77%
    20:00 +17°C° 0 mm 2 mps 748 mmHg 84%
    21:00 +17°C° 0 mm 2 mps 748 mmHg 85%
    22:00 +16°C° 0 mm 2 mps 748 mmHg 87%
    23:00 +15°C° 0 mm 2 mps 748 mmHg 89%
    Show more